FW2365 Weather Reports


time (UTC)temp
C
wind
direction
speed
KPH
gust
KPH
rain 1hr
cm
rain 24hr
cm
rain mn
cm
humidity
%
barometer
mb
20260506145034 20 282 1.6 17.7 0.00 0.00 0.00 38 1006.9
20260506144530 20 314 9.7 17.7 0.00 0.00 0.00 38 1006.8
20260506144030 20 292 4.8 12.9 0.00 0.00 0.00 39 1006.6
20260506143530 20 285 6.4 12.9 0.00 0.00 0.00 39 1006.6
20260506143029 20 260 1.6 8.0 0.00 0.00 0.00 40 1006.6
20260506142528 20 127 1.6 9.7 0.00 0.00 0.00 42 1006.6
20260506142028 20 282 1.6 4.8 0.00 0.00 0.00 39 1006.5
20260506141528 20 185 1.6 4.8 0.00 0.00 0.00 41 1006.7
20260506141030 20 183 1.6 4.8 0.00 0.00 0.00 43 1006.6
20260506140530 20 122 0.0 4.8 0.00 0.00 0.00 42 1006.6
20260506140030 20 122 0.0 6.4 0.00 0.00 0.00 44 1006.7
20260506135527 21 107 1.6 6.4 0.00 0.00 0.00 41 1006.8
20260506135029 21 160 0.0 4.8 0.00 0.00 0.00 44 1006.9
20260506134528 21 159 1.6 6.4 0.00 0.00 0.00 44 1006.9
20260506134028 21 320 1.6 6.4 0.00 0.00 0.00 42 1006.8
20260506133525 21 24 0.0 6.4 0.00 0.00 0.00 42 1006.8
20260506133025 21 25 0.0 12.9 0.00 0.00 0.00 44 1006.7
20260506132525 21 314 8.0 16.1 0.00 0.00 0.00 40 1006.6
20260506132025 21 318 11.3 16.1 0.00 0.00 0.00 43 1006.6
20260506131525 21 283 11.3 16.1 0.00 0.00 0.00 44 1006.6
20260506131026 20 279 3.2 16.1 0.00 0.00 0.00 40 1006.6
20260506130525 20 304 9.7 16.1 0.00 0.00 0.00 45 1006.7
20260506130022 20 309 6.4 14.5 0.00 0.00 0.00 45 1006.8
20260506125521 20 314 8.0 14.5 0.00 0.00 0.00 44 1006.9
20260506125021 20 271 9.7 16.1 0.00 0.00 0.00 43 1006.8
20260506124521 20 318 11.3 16.1 0.00 0.00 0.00 44 1006.8
20260506124022 20 304 9.7 14.5 0.00 0.00 0.00 43 1006.9
20260506123520 20 298 9.7 16.1 0.00 0.00 0.00 44 1007.0
20260506123019 20 309 4.8 14.5 0.00 0.00 0.00 43 1007.1
20260506122518 20 106 1.6 4.8 0.00 0.00 0.00 46 1007.2
20260506122016 20 139 1.6 3.2 0.00 0.00 0.00 46 1007.3
20260506121515 20 156 0.0 14.5 0.00 0.00 0.00 49 1007.4
20260506121014 19 149 3.2 14.5 0.00 0.00 0.00 48 1007.5
20260506120514 19 299 6.4 14.5 0.00 0.00 0.00 49 1007.5
20260506120013 18 322 4.8 14.5 0.00 0.00 0.00 51 1007.4
20260506115511 18 304 9.7 17.7 0.00 0.00 0.00 50 1007.5
20260506115010 18 265 6.4 19.3 0.00 0.00 0.00 52 1007.5
20260506114510 18 309 11.3 19.3 0.00 0.00 0.00 52 1007.6
20260506114009 18 272 9.7 17.7 0.00 0.00 0.00 52 1007.5
20260506113508 18 309 9.7 14.5 0.00 0.00 0.00 51 1007.6
20260506113014 18 304 6.4 14.5 0.00 0.00 0.00 52 1007.6
20260506112507 18 309 8.0 19.3 0.00 0.00 0.00 53 1007.7
20260506112006 18 309 11.3 19.3 0.00 0.00 0.00 52 1007.8
20260506111505 18 304 9.7 17.7 0.00 0.00 0.00 54 1007.9
20260506111004 17 309 9.7 20.9 0.00 0.00 0.00 52 1008.0
20260506110504 17 344 14.5 20.9 0.00 0.00 0.00 54 1008.0
20260506105502 17 304 14.5 22.5 0.00 0.00 0.00 55 1008.1
20260506105001 17 323 9.7 19.3 0.00 0.00 0.00 55 1008.2
20260506104600 17 304 12.9 19.3 0.00 0.00 0.00 55 1008.3
20260506104059 17 304 8.0 14.5 0.00 0.00 0.00 57 1008.4
20260506103558 17 278 3.2 16.1 0.00 0.00 0.00 52 1008.5
20260506103056 17 309 9.7 16.1 0.00 0.00 0.00 58 1008.6
20260506102555 17 293 9.7 14.5 0.00 0.00 0.00 57 1008.8
20260506102055 16 280 9.7 19.3 0.00 0.00 0.00 54 1008.9
20260506101553 16 293 12.9 19.3 0.00 0.00 0.00 58 1008.9
20260506101053 16 299 8.0 16.1 0.00 0.00 0.00 59 1009.0
20260506100552 16 338 3.2 8.0 0.00 0.00 0.00 61 1009.2
20260506100051 16 309 4.8 8.0 0.00 0.00 0.00 61 1009.3
20260506095551 15 304 3.2 6.4 0.00 0.00 0.00 60 1009.2
20260506095050 15 304 1.6 6.4 0.00 0.00 0.00 60 1009.3
20260506094551 15 293 4.8 8.0 0.00 0.00 0.00 59 1009.3
20260506094050 16 309 4.8 8.0 0.00 0.00 0.00 58 1009.3
20260506093550 16 309 1.6 4.8 0.00 0.00 0.00 59 1009.3
20260506093107 16 265 0.0 3.2 0.00 0.00 0.00 56 1009.3
20260506092550 16 265 0.0 3.2 0.00 0.00 0.00 59 1009.3
20260506092050 16 265 1.6 4.8 0.00 0.00 0.00 59 1009.3
20260506091550 16 265 1.6 4.8 0.00 0.00 0.00 57 1009.2
20260506091050 16 282 1.6 6.4 0.00 0.00 0.00 59 1009.2
20260506090550 16 309 0.0 8.0 0.00 0.00 0.00 57 1009.1
20260506090055 16 304 3.2 9.7 0.00 0.00 0.00 60 1009.0
20260506085548 16 295 6.4 9.7 0.00 0.00 0.00 59 1009.1
20260506085047 16 320 0.0 6.4 0.00 0.00 0.00 61 1009.1
20260506084547 16 72 1.6 3.2 0.00 0.00 0.00 62 1009.2
20260506084048 16 81 0.0 3.2 0.00 0.00 0.00 59 1009.2
20260506083548 16 81 0.0 6.4 0.00 0.00 0.00 60 1009.2
20260506083046 16 81 0.0 6.4 0.00 0.00 0.00 56 1009.2
20260506082544 16 304 1.6 6.4 0.00 0.00 0.00 58 1009.2
20260506082043 16 314 0.0 3.2 0.00 0.00 0.00 62 1009.3
20260506081542 15 314 0.0 3.2 0.00 0.00 0.00 64 1009.4
20260506081041 15 314 0.0 1.6 0.00 0.00 0.00 65 1009.4
20260506080540 15 314 0.0 4.8 0.00 0.00 0.00 67 1009.5
20260506073029 13 122 0.0 3.2 0.00 0.00 0.00 70 1010.2
20260506072529 13 319 0.0 1.6 0.00 0.00 0.00 71 1010.1
20260506072028 13 319 0.0 3.2 0.00 0.00 0.00 70 1010.3
20260506071528 13 319 1.6 3.2 0.00 0.00 0.00 73 1010.3
20260506071027 13 314 0.0 4.8 0.00 0.00 0.00 72 1010.4
20260506070530 13 314 1.6 4.8 0.00 0.00 0.00 70 1010.5
20260506062019 11 166 0.0 3.2 0.00 0.00 0.00 73 1010.7
20260506061519 11 166 0.0 3.2 0.00 0.00 0.00 74 1010.8
20260506061018 11 166 0.0 3.2 0.00 0.00 0.00 73 1010.8
20260506060518 11 166 0.0 3.2 0.00 0.00 0.00 76 1010.7
20260506051008 8 169 0.0 3.2 0.00 0.00 0.00 79 1011.5
20260506050508 8 169 1.6 3.2 0.00 0.00 0.00 78 1011.8
20260506045010 9 169 0.0 4.8 0.00 0.00 0.00 80 1011.8
20260506044510 8 169 3.2 4.8 0.00 0.00 0.00 79 1011.9
20260506044009 8 169 3.2 6.4 0.00 0.00 0.00 81 1011.9
20260506043508 8 309 1.6 4.8 0.00 0.00 0.00 80 1011.8
20260506043005 8 309 1.6 6.4 0.00 0.00 0.00 82 1011.7
20260506042504 7 168 1.6 3.2 0.00 0.00 0.00 83 1011.7
20260506042003 8 168 0.0 3.2 0.00 0.00 0.00 83 1011.7
20260506041501 8 168 0.0 3.2 0.00 0.00 0.00 82 1011.7
20260506041002 8 168 0.0 1.6 0.00 0.00 0.00 80 1011.7
20260506040504 8 309 0.0 3.2 0.00 0.00 0.00 80 1011.8
20260506040001 9 168 0.0 3.2 0.00 0.00 0.00 80 1011.8
20260506035602 9 309 1.6 3.2 0.00 0.00 0.00 79 1011.7
20260506035059 8 309 0.0 4.8 0.00 0.00 0.00 78 1011.6
20260506034603 8 168 1.6 4.8 0.00 0.00 0.00 80 1011.4
20260506034058 8 168 0.0 3.2 0.00 0.00 0.00 81 1011.4
20260506033558 8 168 0.0 3.2 0.00 0.00 0.00 81 1011.5
20260506033058 8 168 1.6 3.2 0.00 0.00 0.00 81 1011.6
20260506032556 8 168 0.0 3.2 0.00 0.00 0.00 82 1011.7
20260506032055 8 168 0.0 3.2 0.00 0.00 0.00 83 1011.9
20260506031556 8 168 0.0 3.2 0.00 0.00 0.00 82 1012.2
20260506031052 8 309 0.0 3.2 0.00 0.00 0.00 81 1012.3
20260506030553 8 309 0.0 3.2 0.00 0.00 0.00 81 1012.4
20260506030051 8 168 0.0 3.2 0.00 0.00 0.00 80 1012.4
20260506025553 8 309 0.0 3.2 0.00 0.00 0.00 81 1012.5
20260506025051 8 309 0.0 3.2 0.00 0.00 0.00 81 1012.5
20260506024551 8 168 1.6 3.2 0.00 0.00 0.00 81 1012.4
20260506024051 8 168 0.0 3.2 0.00 0.00 0.00 81 1012.4
20260506023551 8 168 1.6 3.2 0.00 0.00 0.00 81 1012.3
20260506023055 8 309 0.0 3.2 0.00 0.00 0.00 81 1012.4
20260506022549 8 309 0.0 3.2 0.00 0.00 0.00 80 1012.6
20260506022048 8 168 0.0 3.2 0.00 0.00 0.00 79 1012.6
20260506021548 9 309 0.0 3.2 0.00 0.00 0.00 78 1012.6
20260506021050 9 168 0.0 3.2 0.00 0.00 0.00 79 1012.7
20260506020546 9 309 0.0 3.2 0.00 0.00 0.00 79 1012.6
20260506020114 9 309 1.6 3.2 0.00 0.00 0.00 78 1012.3
20260506015549 9 309 0.0 3.2 0.00 0.00 0.00 78 1012.1
20260506015046 9 168 0.0 4.8 0.00 0.00 0.00 79 1012.3
20260506014546 8 309 1.6 4.8 0.00 0.00 0.00 79 1012.3
20260506014044 9 309 1.6 3.2 0.00 0.00 0.00 78 1012.3
20260506013544 9 309 0.0 3.2 0.00 0.00 0.00 78 1012.3
20260506013043 9 309 0.0 3.2 0.00 0.00 0.00 78 1012.4
20260506012543 9 309 0.0 3.2 0.00 0.00 0.00 76 1012.4
20260506012041 9 309 0.0 3.2 0.00 0.00 0.00 76 1012.4
20260506011517 10 309 0.0 3.2 0.00 0.00 0.00 76 1012.6
20260506011041 10 309 0.0 3.2 0.00 0.00 0.00 75 1012.7
20260506010541 10 309 0.0 6.4 0.00 0.00 0.00 75 1012.6
20260506010041 10 309 1.6 6.4 0.00 0.00 0.00 75 1012.5
20260506005540 10 309 3.2 6.4 0.00 0.00 0.00 75 1012.4
20260506005039 10 309 1.6 4.8 0.00 0.00 0.00 76 1012.4
20260506004543 10 309 1.6 4.8 0.00 0.00 0.00 76 1012.5
20260506004039 9 309 0.0 3.2 0.00 0.00 0.00 76 1012.5
20260506003539 9 309 0.0 1.6 0.00 0.00 0.00 76 1012.5
20260506003039 9 309 0.0 3.2 0.00 0.00 0.00 75 1012.5
20260506002538 10 309 0.0 3.2 0.00 0.00 0.00 73 1012.5
20260506002036 10 168 0.0 3.2 0.00 0.00 0.00 73 1012.6
20260506001545 10 168 0.0 4.8 0.00 0.00 0.00 73 1012.5
20260506001035 10 168 0.0 4.8 0.00 0.00 0.00 73 1012.5
20260506000535 10 168 1.6 4.8 0.00 0.00 0.00 72 1012.6
20260506000052 10 168 0.0 4.8 0.00 0.00 0.00 72 1012.5
20260505235537 10 168 1.6 4.8 0.00 0.00 0.00 72 1012.5
20260505235037 10 352 0.0 3.2 0.00 0.00 0.00 72 1012.5
20260505234634 10 352 0.0 3.2 0.00 0.00 0.00 71 1012.6
20260505234031 10 352 0.0 3.2 0.00 0.00 0.00 70 1012.6
20260505233631 11 352 0.0 3.2 0.00 0.00 0.00 68 1012.7
20260505233028 11 287 0.0 3.2 0.00 0.00 0.00 69 1012.8
20260505232529 12 287 0.0 3.2 0.00 0.00 0.00 67 1012.8
20260505232111 12 287 0.0 3.2 0.00 0.00 0.00 69 1012.8
20260505225548 13 257 8.0 16.1 0.00 0.00 0.00 67 1012.6
20260505225048 13 285 6.4 17.7 0.00 0.00 0.00 67 1012.6
20260505224550 13 267 8.0 20.9 0.00 0.00 0.00 67 1012.5
20260505224044 13 281 3.2 20.9 0.00 0.00 0.00 67 1012.5
20260505223545 13 282 8.0 20.9 0.00 0.00 0.00 67 1012.5
20260505223043 13 304 6.4 17.7 0.00 0.00 0.00 67 1012.4
20260505222544 13 253 6.4 17.7 0.00 0.00 0.00 67 1012.4
20260505222047 13 270 9.7 17.7 0.00 0.00 0.00 67 1012.4
20260505221548 13 283 11.3 19.3 0.00 0.00 0.00 68 1012.4
20260505221039 13 280 8.0 19.3 0.00 0.00 0.00 68 1012.3
20260505220539 13 304 6.4 19.3 0.00 0.00 0.00 70 1012.3
20260505220038 13 282 8.0 16.1 0.00 0.00 0.00 71 1012.2
20260505215538 13 271 4.8 12.9 0.00 0.00 0.00 71 1012.2
20260505215036 13 288 4.8 14.5 0.00 0.00 0.00 71 1012.2
20260505214544 12 292 3.2 8.0 0.00 0.00 0.00 71 1012.1
20260505214037 12 304 0.0 8.0 0.00 0.00 0.00 71 1012.2
20260505213536 12 295 1.6 4.8 0.00 0.00 0.00 71 1012.2
20260505213036 12 161 0.0 3.2 0.00 0.00 0.00 71 1012.1
20260505212536 12 196 1.6 4.8 0.00 0.00 0.00 66 1012.1
20260505212035 12 196 0.0 4.8 0.00 0.00 0.00 69 1012.0
20260505211601 12 197 1.6 3.2 0.00 0.00 0.00 63 1012.1
20260505211035 12 197 0.0 3.2 0.00 0.00 0.00 62 1012.0
20260505210535 12 243 0.0 3.2 0.00 0.00 0.00 62 1011.9
20260505210041 12 243 1.6 3.2 0.00 0.00 0.00 62 1011.9
20260505205535 12 243 0.0 3.2 0.00 0.00 0.00 61 1011.8
20260505205037 12 243 0.0 3.2 0.00 0.00 0.00 63 1011.7
20260505204544 12 197 0.0 3.2 0.00 0.00 0.00 63 1011.6
20260505204035 12 197 0.0 3.2 0.00 0.00 0.00 64 1011.5
20260505203534 12 197 0.0 3.2 0.00 0.00 0.00 63 1011.4
20260505203034 12 197 0.0 3.2 0.00 0.00 0.00 63 1011.4
20260505202535 13 197 0.0 3.2 0.00 0.00 0.00 60 1011.3
20260505202034 13 197 0.0 4.8 0.00 0.00 0.00 59 1011.2
20260505201538 13 197 0.0 4.8 0.00 0.00 0.00 57 1011.1
20260505201030 13 197 0.0 3.2 0.00 0.00 0.00 57 1011.0
20260505200126 13 197 0.0 3.2 0.00 0.00 0.00 56 1010.9
20260505195514 13 197 0.0 3.2 0.00 0.00 0.00 57 1010.8
20260505195013 13 197 0.0 3.2 0.00 0.00 0.00 57 1010.7
20260505194514 13 197 0.0 3.2 0.00 0.00 0.00 57 1010.6
20260505194016 13 197 0.0 3.2 0.00 0.00 0.00 57 1010.6
20260505193514 13 197 0.0 3.2 0.00 0.00 0.00 57 1010.5
20260505193013 13 197 0.0 3.2 0.00 0.00 0.00 57 1010.4
20260505192512 13 197 0.0 3.2 0.00 0.00 0.00 57 1010.4
20260505192013 14 197 0.0 3.2 0.00 0.00 0.00 58 1010.4
20260505191515 14 197 0.0 3.2 0.00 0.00 0.00 58 1010.3
20260505191013 15 197 0.0 3.2 0.00 0.00 0.00 55 1010.2
20260505190512 15 197 1.6 3.2 0.00 0.00 0.00 55 1010.2
20260505190013 15 169 0.0 4.8 0.00 0.00 0.00 55 1010.2
20260505185513 15 169 0.0 6.4 0.00 0.00 0.00 55 1010.1
20260505185012 15 162 0.0 3.2 0.00 0.00 0.00 54 1010.0
20260505184511 15 162 0.0 4.8 0.00 0.00 0.00 54 1010.0
20260505184012 15 162 1.6 4.8 0.00 0.00 0.00 53 1009.9
20260505183514 15 162 1.6 4.8 0.00 0.00 0.00 54 1009.8
20260505183014 16 162 0.0 3.2 0.00 0.00 0.00 51 1009.7
20260505182513 16 162 0.0 3.2 0.00 0.00 0.00 52 1009.7
20260505182013 16 162 0.0 6.4 0.00 0.00 0.00 48 1009.6
20260505181510 16 162 3.2 6.4 0.00 0.00 0.00 49 1009.5
20260505181012 16 277 3.2 6.4 0.00 0.00 0.00 49 1009.3
20260505180510 16 276 3.2 6.4 0.00 0.00 0.00 49 1009.2
20260505180010 16 229 0.0 3.2 0.00 0.00 0.00 49 1009.3
20260505175509 16 229 0.0 3.2 0.00 0.00 0.00 50 1009.3
20260505175009 16 230 0.0 3.2 0.00 0.00 0.00 51 1009.2
20260505174509 16 230 0.0 3.2 0.00 0.00 0.00 50 1009.1
20260505174010 16 230 1.6 3.2 0.00 0.00 0.00 49 1009.1
20260505173510 16 230 0.0 3.2 0.00 0.00 0.00 49 1009.0
20260505173009 16 230 0.0 3.2 0.00 0.00 0.00 49 1009.1
20260505172512 16 230 0.0 3.2 0.00 0.00 0.00 48 1009.1
20260505172008 16 230 0.0 3.2 0.00 0.00 0.00 50 1009.2
20260505171516 16 230 0.0 3.2 0.00 0.00 0.00 49 1009.2
20260505171008 16 229 0.0 3.2 0.00 0.00 0.00 50 1009.2
20260505170509 16 229 0.0 3.2 0.00 0.00 0.00 49 1009.2
20260505170010 16 229 0.0 3.2 0.00 0.00 0.00 50 1009.1
20260505165507 16 229 0.0 3.2 0.00 0.00 0.00 52 1009.1
20260505165008 16 229 0.0 3.2 0.00 0.00 0.00 50 1009.2
20260505164507 16 229 0.0 3.2 0.00 0.00 0.00 49 1009.2
20260505164008 16 229 0.0 3.2 0.00 0.00 0.00 51 1009.2
20260505163506 16 229 0.0 3.2 0.00 0.00 0.00 53 1009.3
20260505163009 16 229 0.0 3.2 0.00 0.00 0.00 53 1009.3
20260505162505 16 229 0.0 3.2 0.00 0.00 0.00 53 1009.3
20260505162005 16 230 0.0 3.2 0.00 0.00 0.00 53 1009.4
20260505161505 16 293 0.0 3.2 0.00 0.00 0.00 53 1009.3
20260505161005 16 293 0.0 3.2 0.00 0.00 0.00 53 1009.3
20260505160508 17 292 0.0 3.2 0.00 0.00 0.00 54 1009.3
20260505153003 16 165 0.0 3.2 0.00 0.00 0.00 58 1009.8
20260505152502 16 165 0.0 3.2 0.00 0.00 0.00 61 1009.7
20260505152002 16 165 0.0 4.8 0.00 0.00 0.00 59 1009.8
20260505151505 16 165 0.0 4.8 0.00 0.00 0.00 58 1009.9
20260505151002 16 145 1.6 4.8 0.00 0.00 0.00 58 1009.8
20260505150502 16 122 1.6 4.8 0.00 0.00 0.00 58 1009.8